Voltar ao catálogo

GNOMES-3

AtivoCiênciaSSO
NORAD 52158·PAYLOAD·🇺🇸 United States

Lançado Apr 1, 2022 de Cape Canaveral Space Force Station

Loading…

Próximas Passagens (próximas 24 horas)

TLE

AtualizadoSource: Space-Track

Época: Sep 14, 2026, 04:01 UTC

1 52158U 22033B   26257.16792418  .00001290  00000-0  15604-3 0  9992
2 52158  97.8166 331.8713 0011561  38.6076 321.5963 14.85349620240546

Acompanhe GNOMES-3 em tempo real com AllMySat

Download on the App Store